Regional Weather Roundup
Issued by NWS Kansas City/Pleasant Hill, MO

Home | Current Version | Previous Version | Text Only | Print | Product List | Glossary On
Versions: 1 2 3 4 5 6 7 8 9 10 11 12 13 14 15 16 17 18 19 20 21 22 23 24 25 26 27 28
000
ASUS43 KEAX 220110
RWREAX

WEATHER ROUNDUP FOR EASTERN KANSAS AND NORTHWEST MISSOURI
NATIONAL WEATHER SERVICE KANSAS CITY/PLEASANT HILL MO
800 PM CDT SUN MAY 21 2017

KSZ040-057-103>105-MOZ028-029-037-043-220200-
...KANSAS CITY METROPOLITAN AREA...

CITY           SKY/WX    TMP DP  RH WIND       PRES   REMARKS
K.C. INTL      CLEAR     65  44  46 NW3       30.12R
K.C. DOWNTOWN  CLEAR     68  41  37 W3        30.11R
LEES SUMMIT    CLEAR     66  44  45 W5        30.13R
OLATHE - IXD   CLEAR     67  44  43 W5        30.13R
OLATHE - OJC   CLEAR     66  43  43 W5        30.13R
LAWRENCE       CLEAR     68  46  45 SW3       30.12R

$$

MOZ001>008-011>017-020>025-030>033-038>040-044>046-053-054-220200-
...NORTHERN AND CENTRAL MISSOURI...

CITY           SKY/WX    TMP DP  RH WIND       PRES   REMARKS
ST. JOSEPH     CLEAR     66  47  50 NW6       30.10R
MOSBY          CLEAR     66  37  34 CALM      30.12R
WARRENSBURG    CLEAR     64  43  45 CALM      30.12R
WHITEMAN AFB   CLEAR     65  45  47 W3        30.12R
CLINTON        CLEAR     68  46  45 NW3       30.13S
SEDALIA        CLEAR     66  47  50 W6        30.14R
WARSAW         NOT AVBL
CHILLICOTHE      N/A     64  45  49 CALM      30.11R
KIRKSVILLE     CLEAR     59  47  64 W5        30.10R

$$

MOZ041-047>049-056>058-063>065-088>090-097-220200-
...EASTERN AND SOUTHERN MISSOURI...

CITY           SKY/WX    TMP DP  RH WIND       PRES   REMARKS
ST. LOUIS INTL PTCLDY    66  46  48 NW9       30.10R
SPIRIT OF STL  CLEAR     63  47  55 W5        30.10R
COLUMBIA       CLEAR     63  46  54 W6        30.12R
JEFFERSON CITY CLEAR     67  44  43 W6        30.11R
ROLLA          CLEAR     61  45  55 W5        30.13R
OSAGE BEACH    CLEAR     62  48  60 CALM      30.14R
SPRINGFIELD    CLOUDY    67  47  48 CALM      30.13S
BRANSON        MOCLDY    64  48  55 CALM      30.15F
JOPLIN         CLOUDY    69  51  52 VRB3      30.13F
WEST PLAINS    CLEAR     63  46  54 NW6       30.14S

$$

IAZ060-094-KSZ022-034>040-054-083-096-NEZ052-066-093-220200-
...KANSAS...SOUTHEAST NEBRASKA AND IOWA...

CITY           SKY/WX    TMP DP  RH WIND       PRES   REMARKS
TOPEKA         CLEAR     70  44  39 CALM      30.11R
MANHATTAN      CLEAR     65  53  65 CALM      30.10R
EMPORIA        CLEAR     70  45  40 CALM      30.12R
CHANUTE        CLEAR     72  49  44 CALM      30.12S
WICHITA        CLOUDY    66  54  65 SW7       30.12F
OMAHA          CLEAR     63  45  51 N6        30.06R
LINCOLN        CLEAR     68  39  34 NW3       30.07R
FALLS CITY     CLEAR     63  44  50 NW6       30.09R
LAMONI         CLEAR     60  47  61 W8        30.08R
DES MOINES     PTCLDY    57  43  59 W9        30.06R

$$





USA.gov is the U.S. government's official web portal to all federal, state and local government web resources and services.